CST,Max TemperatureF,Mean TemperatureF,Min TemperatureF,Max Dew PointF,MeanDew PointF,Min DewpointF,Max Humidity, Mean Humidity, Min Humidity, Max Sea Level PressureIn, Mean Sea Level PressureIn, Min Sea Level PressureIn, Max VisibilityMiles, Mean VisibilityMiles, Min VisibilityMiles, Max Wind SpeedMPH, Mean Wind SpeedMPH, Max Gust SpeedMPH,PrecipitationIn, CloudCover, Events, WindDirDegrees
2013-11-1,46,38,30,36,34,29,100,83,65,30.04,29.79,29.59,10,10,7,26,13,32,T,5,Rain,304
2013-11-2,56,39,22,35,30,21,96,67,38,30.12,30.05,29.94,10,8,2,12,5,17,0.00,0,,223
2013-11-3,54,41,28,34,31,28,89,68,46,29.90,29.68,29.59,10,10,10,31,16,45,0.00,0,,161
2013-11-4,45,32,18,32,25,16,92,69,45,30.19,29.96,29.69,10,10,9,21,10,26,0.00,3,,276
2013-11-5,36,27,17,24,19,15,92,68,44,30.29,30.22,30.18,10,10,10,8,3,10,0.00,4,,296
2013-11-6,41,28,14,28,22,13,100,80,59,30.25,30.17,30.12,10,8,0,16,7,22,0.00,3,Fog,224
2013-11-7,50,32,13,26,20,11,92,64,36,30.37,30.26,30.13,10,9,2,23,9,28,0.00,0,,257
2013-11-8,49,35,20,41,34,21,96,76,56,30.11,29.72,29.59,10,10,8,30,12,37,0.09,5,Rain,227
2013-11-9,43,30,16,37,27,16,92,69,45,30.39,30.09,29.78,10,10,10,31,14,39,0.00,4,,299
2013-11-10,45,29,13,31,21,11,96,75,53,30.38,30.28,30.13,10,10,7,26,11,33,T,5,Snow,207
2013-11-11,22,11,0,9,4,-3,87,66,45,30.87,30.68,30.38,10,10,8,23,11,31,T,3,Snow,3
2013-11-12,35,17,-1,20,10,-4,91,66,41,30.86,30.64,30.31,10,10,10,20,10,23,0.00,0,,185
2013-11-13,62,43,23,36,29,19,88,62,36,30.25,30.02,29.92,10,10,10,18,9,24,0.01,2,,223
2013-11-14,52,37,22,36,30,22,96,75,54,29.93,29.86,29.83,10,10,10,21,8,26,0.00,0,,254
2013-11-15,55,35,15,38,28,14,96,74,51,29.84,29.63,29.44,10,10,9,26,11,35,0.00,1,,168
2013-11-16,46,37,27,39,34,27,96,86,76,29.44,29.32,29.22,10,9,6,12,6,15,0.00,6,,11
2013-11-17,40,31,22,34,28,22,100,85,69,30.03,29.69,29.41,10,10,9,20,10,25,0.00,7,,316
2013-11-18,40,27,14,26,21,13,92,73,54,30.22,30.15,30.04,10,10,9,16,6,18,0.00,1,,195
2013-11-19,53,40,26,32,28,23,92,64,35,30.06,29.75,29.58,10,10,10,25,13,32,0.00,0,,168
2013-11-20,44,33,22,33,23,15,92,77,62,30.25,29.94,29.63,10,10,8,28,14,32,0.00,3,,1
2013-11-21,22,10,-2,13,4,-6,87,70,53,30.74,30.57,30.29,10,10,10,26,16,32,T,4,,342
2013-11-22,28,12,-4,15,4,-6,87,67,46,30.88,30.70,30.61,10,10,8,21,10,26,T,1,,311
2013-11-23,16,5,-7,3,-3,-11,87,67,46,31.01,30.86,30.61,10,10,10,16,7,21,0.00,0,,198
2013-11-24,47,28,9,25,15,3,84,58,31,30.59,30.15,29.95,10,10,10,28,15,35,T,1,,193
2013-11-25,37,29,21,25,21,18,92,72,52,30.27,30.15,29.97,10,10,10,26,15,32,0.00,5,,310
2013-11-26,28,15,1,14,5,-3,83,61,39,30.52,30.46,30.26,10,10,10,28,13,33,0.00,1,,337
2013-11-27,33,15,-3,17,9,-5,88,67,46,30.47,30.17,29.98,10,10,10,28,12,33,0.00,1,,190
2013-11-28,26,16,5,19,14,4,92,76,60,30.48,30.38,30.14,10,9,2,22,8,29,T,6,Snow,15
2013-11-29,38,24,9,23,16,6,92,72,52,30.45,30.18,30.05,10,10,7,24,12,30,0.00,0,,175
2013-11-30,37,23,9,25,20,7,96,78,59,30.22,30.17,30.05,10,9,5,10,4,13,0.00,5,,328